sat.trackr.live / text

‹ back to catalog

ABS-6

NORAD 25924 · 1999-053A

PAYLOAD ACTIVE UNKNOWN

§ Identity

Operator
Country
ABS
Launch date
1999-09-26
Launch site
TYMSC
Launch vehicle
Mass (kg)
RCS (m²)
39.81

Purposes: comms

External: N2YO · Heavens-Above · Gunter

§ Orbital elements

Epoch: 2026-09-19T21:08:57.281856Z

Period
1,436.12 min
Inclination
0.0272°
Eccentricity
0.0001341
Mean motion
1.00269943 rev/d
Perigee alt
35,781.5 km
Apogee alt
35,792.8 km
Semi-major
42,165.2 km
B*
0.0000e+0
RAAN
136.9414°
Arg perigee
61.4663°
Mean anomaly
276.6272°
Rev number
9,879

§ Raw data

ABS-61 25924U 99053A   26262.88121854  .00000000  00000+0  00000+0 0  99912 25924   0.0272 136.9414 0001341  61.4663 276.6272  1.00269943 98797

JSON: /api/v1/satellites/25924 · /tle

For live sub-satellite position, see the globe view (requires WebGL).

§ Visibility from observer

Set your observer location to see the next 7 days of passes ≥ 10°. The values pass through the URL so the page stays shareable.

No JS? Fill the form by hand. The geolocation button needs JavaScript.